Regional Weather Roundup
Issued by NWS

Home | Current Version | Previous Version | Text Only | Print | Product List | Glossary Off
Versions: 1 2 3 4 5 6 7 8 9 10 11 12 13 14 15 16 17 18 19 20 21 22 23 24 25 26 27 28 29 30 31 32 33 34 35 36 37 38 39 40 41 42 43 44 45 46 47 48 49 50

000
ASUS43 KLMK 282110
RWRKY
KENTUCKY REGIONAL WEATHER ROUNDUP
NATIONAL WEATHER SERVICE LOUISVILLE KY
500 PM EDT TUE MAR 28 2017

NOTE "FAIR" INDICATES FEW OR NO CLOUDS BELOW 12,000 FEET
WITH NO SIGNIFICANT WEATHER AND/OR OBSTRUCTIONS TO VISIBILITY.

KYZ001>023-026-027-061>063-070>075-282200-
WESTERN AND SOUTH CENTRAL KENTUCKY

CITY           SKY/WX    TMP DP  RH WIND       PRES   REMARKS
PADUCAH        CLOUDY    62  52  69 N10       30.03F
HENDERSON      CLOUDY    59  50  72 E5        30.04S
OWENSBORO      PTSUNNY   63  55  75 NW9       30.04S HAZE
HOPKINSVILLE   CLOUDY    62  55  75 N7        30.02F
BOWLING GREEN  CLOUDY    64  54  69 N3        30.03S
GLASGOW        CLOUDY    63  54  74 N3        30.02S
$$

KYZ024-025-028>034-038-045-046-053-282200-
NORTH CENTRAL KENTUCKY

CITY           SKY/WX    TMP DP  RH WIND       PRES   REMARKS
LOUISVILLE/SDF MOSUNNY   68  49  50 N9G17     30.01S
LOUISVILLE/LOU MOSUNNY   66  50  56 NW9       30.02S
FORT KNOX      CLOUDY    64  54  69 N6        30.00S
$$

KYZ035>037-039>044-047>052-055>060-089>105-282200-
NORTHEAST KENTUCKY

CITY           SKY/WX    TMP DP  RH WIND       PRES   REMARKS
LEXINGTON      CLOUDY    62  53  72 NW8       30.02R
COVINGTON      CLOUDY    58  50  75 NW10      30.03R
FRANKFORT      CLOUDY    63  51  65 N8        30.01R
$$

KYZ054-064>069-076>088-106>120-282200-
SOUTHEAST KENTUCKY

CITY           SKY/WX    TMP DP  RH WIND       PRES   REMARKS
JACKSON        CLOUDY    63  53  70 NW6       29.99S
LONDON         CLOUDY    64  49  57 W9        30.00R
SOMERSET       CLOUDY    63  52  67 W6        30.02S
MIDDLESBORO    CLOUDY    67  52  57 W3        29.99S
MONTICELLO     CLOUDY    64  53  67 W9G17     30.03S
$$





USA.gov is the U.S. government's official web portal to all federal, state and local government web resources and services.